Lebanon, NH

8:11 AM EDT on October 20, 2019 (GMT -0400)
Lebanon Municipal

Weather History for KLEB - September, 2019

Change the Weather History Date:

Wednesday, September 18, 2019

  Actual Average Record
Temperature  
Mean Temperature 56 °F -  
Max Temperature 68 °F 70 °F 86 °F (1946)
Min Temperature 42 °F 49 °F 31 °F (1943)
Degree Days  
Heating Degree Days 9    
Growing Degree Days 6 (Base 50)    
Moisture  
Dew Point 42 °F    
Average Humidity 77    
Maximum Humidity 90    
Minimum Humidity 35    
Precipitation  
Precipitation 0.00 in - - ()
Sea Level Pressure  
Sea Level Pressure 30.28 in    
Wind  
Wind Speed 3 mph (NNE)    
Max Wind Speed 15 mph    
Max Gust Speed 20 mph    
Visibility 6 miles    
Events Fog    
Averages and records for this station are not official NWS values.
T = Trace of Precipitation, MM = Missing Value Source: NWS Daily Summary

Daily Weather History Graph

Daily Weather History Graph

Search for Another Location

Airport or City:

Astronomy

Sep. 18, 2019 Rise Set
Actual Time 6:31 AM EDT 6:54 PM EDT
Civil Twilight 6:02 AM EDT 7:23 PM EDT
Nautical Twilight 5:29 AM EDT 7:56 PM EDT
Astronomical Twilight 4:54 AM EDT 8:31 PM EDT
Moon 9:19 PM EDT (9/18) 10:38 AM EDT (9/18)
Length of Visible Light 13h 20m
Length of Day
12h 22m
Waning Gibbous, 82% of the Moon is Illuminated
Sep 18
Waning Gibbous
Sep 21
Last Quarter
Sep 28
New
Oct 5
First Quarter
Oct 13
Full

Hourly Weather History & Observations

Time (EDT) Temp. Windchill Dew Point Humidity Pressure Visibility Wind Dir Wind Speed Gust Speed Precip Events Conditions
12:53 AM 46.0 °F - 42.1 °F 86% 30.23 in 5.0 mi Calm Calm - N/A   Clear
1:53 AM 46.0 °F 44.8 °F 42.1 °F 86% 30.24 in 10.0 mi East 3.5 mph - N/A   Scattered Clouds
2:53 AM 46.9 °F - 42.1 °F 83% 30.24 in 10.0 mi Calm Calm - N/A   Partly Cloudy
3:08 AM 44.1 °F 42.5 °F 39.9 °F 85% 30.24 in 8.0 mi NE 3.5 mph - N/A   Mostly Cloudy
3:32 AM 44.1 °F - 39.9 °F 85% 30.24 in 10.0 mi Calm Calm - N/A   Scattered Clouds
3:53 AM 45.0 °F - 42.1 °F 90% 30.24 in 8.0 mi Calm Calm - N/A   Partly Cloudy
4:10 AM 45.0 °F - 39.9 °F 82% 30.25 in 8.0 mi Calm Calm - N/A   Mostly Cloudy
4:32 AM 46.9 °F - 44.1 °F 90% 30.25 in 1.8 mi NE 3.5 mph - N/A   Overcast
4:39 AM 46.9 °F - 44.1 °F 90% 30.25 in 3.0 mi NNE 3.5 mph - N/A   Overcast
4:53 AM 48.0 °F - 44.1 °F 86% 30.25 in 2.0 mi NNE 4.6 mph - N/A   Overcast
5:01 AM 46.9 °F - 44.1 °F 90% 30.25 in 1.8 mi ENE 3.5 mph - N/A   Overcast
5:24 AM 46.9 °F - 44.1 °F 90% 30.26 in 0.8 mi NNE 3.5 mph - N/A   Mist
5:34 AM 46.9 °F - 44.1 °F 90% 30.26 in 1.0 mi NNE 3.5 mph - N/A   Mist
5:44 AM 46.9 °F - 44.1 °F 90% 30.27 in 0.8 mi NNE 4.6 mph - N/A   Mist
5:53 AM 46.9 °F - 44.1 °F 90% 30.26 in 0.5 mi ENE 3.5 mph - N/A Fog Fog
6:01 AM 46.9 °F - 44.1 °F 90% 30.27 in 0.2 mi Calm Calm - N/A Fog Fog
6:08 AM 46.9 °F - 44.1 °F 90% 30.27 in 0.5 mi NE 3.5 mph - N/A Fog Fog
6:30 AM 46.9 °F - 44.1 °F 90% 30.28 in 0.2 mi Calm Calm - N/A Fog Fog
6:42 AM 46.9 °F - 44.1 °F 90% 30.29 in 0.5 mi NW 4.6 mph - N/A Fog Fog
6:53 AM 46.9 °F - 44.1 °F 90% 30.29 in 0.5 mi North 4.6 mph - N/A Fog Fog
7:15 AM 46.9 °F - 44.1 °F 90% 30.30 in 1.0 mi NNW 3.5 mph - N/A   Overcast
7:53 AM 46.9 °F - 44.1 °F 90% 30.31 in 1.0 mi North 3.5 mph - N/A Fog Fog
8:53 AM 48.0 °F - 44.1 °F 86% 30.32 in 6.0 mi North 5.8 mph - N/A   Overcast
9:27 AM 48.9 °F - 44.1 °F 83% 30.33 in 10.0 mi NNW 3.5 mph - N/A   Overcast
9:53 AM 52.0 °F - 45.0 °F 77% 30.33 in 10.0 mi NNW 5.8 mph - N/A   Mostly Cloudy
10:06 AM 55.0 °F - 45.0 °F 69% 30.32 in 10.0 mi NNW 8.1 mph - N/A   Scattered Clouds
10:53 AM 59.0 °F - 39.0 °F 48% 30.32 in 10.0 mi North 15.0 mph 19.6 mph N/A   Clear
11:53 AM 62.1 °F - 34.0 °F 35% 30.30 in 10.0 mi North 12.7 mph - N/A   Clear
1:53 PM 64.9 °F - 39.0 °F 39% 30.29 in 10.0 mi NW 8.1 mph - N/A   Clear
2:53 PM 66.9 °F - 42.1 °F 40% 30.28 in 10.0 mi North 6.9 mph - N/A   Clear
3:53 PM 68.0 °F - 42.1 °F 39% 30.29 in 10.0 mi NNW 6.9 mph - N/A   Clear
4:53 PM 66.0 °F - 41.0 °F 40% 30.27 in 10.0 mi Calm Calm - N/A   Clear
5:53 PM 66.0 °F - 41.0 °F 40% 30.28 in 10.0 mi NNW 3.5 mph - N/A   Clear
6:53 PM 55.0 °F - 46.9 °F 74% 30.30 in 10.0 mi Calm Calm - N/A   Clear
7:53 PM 48.9 °F - 42.1 °F 77% 30.32 in 10.0 mi Calm Calm - N/A   Clear
8:53 PM 46.9 °F - 41.0 °F 80% 30.34 in 10.0 mi Calm Calm - N/A   Clear
9:53 PM 44.1 °F - 39.0 °F 82% 30.34 in 10.0 mi Calm Calm - N/A   Clear
10:53 PM 44.1 °F 42.5 °F 39.9 °F 85% 30.35 in 10.0 mi East 3.5 mph - N/A   Clear
11:53 PM 42.1 °F - 37.9 °F 85% 30.36 in 10.0 mi Calm Calm - N/A   Clear